Weather History for Seminole, TX

Change the Weather History Date:

Wednesday, November 20, 2013

  Actual Average (KHOB) Record (KHOB)
Temperature  
Mean Temperature 64 °F -  
Max Temperature 75 °F 62 °F 86 °F (1996)
Min Temperature 53 °F 36 °F 25 °F (1952)
Degree Days  
Heating Degree Days 1    
Growing Degree Days 14 (Base 50)    
Moisture  
Dew Point 48 °F    
Average Humidity 68    
Maximum Humidity 97    
Minimum Humidity 25    
Precipitation  
Precipitation 0.00 in - - ()
Sea Level Pressure  
Sea Level Pressure 29.89 in    
Wind  
Wind Speed 10 mph (SW)    
Max Wind Speed 15 mph    
Max Gust Speed 21 mph    
Visibility 8 miles    
Events      
Averages and records for this station are not official NWS values.
T = Trace of Precipitation, MM = Missing Value Source: NWS Daily Summary

Daily Weather History Graph

Daily Weather History Graph

Search for Another Location

Airport:

Trip Planner

Search our weather history database for the weather conditions in past years. The results will help you decide how hot, cold, wet, or windy it might be!

Date:

Astronomy

Nov. 20, 2013 Rise Set
Actual Time 7:25 AM CST 5:47 PM CST
Civil Twilight 6:58 AM CST 6:13 PM CST
Nautical Twilight 6:28 AM CST 6:43 PM CST
Astronomical Twilight 5:59 AM CST 7:12 PM CST
Moon 8:31 PM CST (11/20) 9:51 AM CST (11/20)
Length of Visible Light 11h 14m
Length of Day
10h 21m
Waning Gibbous, 91% of the Moon is Illuminated
Nov 20
Waning Gibbous
Nov 25
Last Quarter
Dec 2
New
Dec 9
First Quarter
Dec 17
Full

Hourly Weather History & Observations

Time (CST) Temp. Dew Point Humidity Pressure Visibility Wind Dir Wind Speed Gust Speed Precip Events Conditions
12:15 AM 55.0 °F 53.1 °F 93% 29.90 in 7.0 mi SSW 9.2 mph - N/A   Clear
12:35 AM 55.0 °F 53.2 °F 94% 29.90 in 7.0 mi SSW 8.1 mph - N/A   Clear
12:55 AM 54.9 °F 53.2 °F 94% 29.90 in 7.0 mi SSW 9.2 mph - N/A   Clear
1:15 AM 54.9 °F 53.6 °F 96% 29.89 in 5.0 mi SSW 10.4 mph - N/A   Clear
1:35 AM 54.5 °F 53.2 °F 96% 29.89 in 5.0 mi SSW 9.2 mph - N/A   Clear
1:55 AM 54.0 °F 53.1 °F 97% 29.90 in 5.0 mi SW 6.9 mph - N/A   Clear
2:15 AM 53.8 °F 52.9 °F 97% 29.90 in 4.0 mi SW 6.9 mph - N/A   Mostly Cloudy
2:35 AM 54.5 °F 53.6 °F 97% 29.90 in 4.0 mi SSW 11.5 mph - N/A   Overcast
2:55 AM 55.4 °F 54.5 °F 97% 29.89 in 4.0 mi SSW 12.7 mph 16.1 mph N/A   Overcast
3:15 AM 55.6 °F 54.5 °F 96% 29.89 in 5.0 mi SSW 13.8 mph - N/A   Overcast
3:35 AM 55.6 °F 54.5 °F 96% 29.90 in 5.0 mi SSW 12.7 mph - N/A   Overcast
3:55 AM 55.8 °F 54.5 °F 96% 29.90 in 5.0 mi SSW 10.4 mph 18.4 mph N/A   Overcast
4:15 AM 55.6 °F 54.0 °F 94% 29.90 in 5.0 mi SSW 13.8 mph - N/A   Overcast
4:35 AM 55.4 °F 53.8 °F 94% 29.90 in 5.0 mi SSW 11.5 mph - N/A   Overcast
4:55 AM 55.4 °F 53.8 °F 94% 29.90 in 5.0 mi SSW 10.4 mph - N/A   Overcast
5:15 AM 55.4 °F 53.8 °F 94% 29.90 in 5.0 mi SSW 12.7 mph - N/A   Overcast
5:35 AM 55.4 °F 53.6 °F 94% 29.89 in 7.0 mi SSW 11.5 mph 16.1 mph N/A   Overcast
5:55 AM 55.4 °F 53.6 °F 94% 29.89 in 5.0 mi SSW 10.4 mph - N/A   Overcast
6:15 AM 55.4 °F 53.6 °F 94% 29.90 in 7.0 mi SSW 10.4 mph - N/A   Overcast
6:35 AM 55.0 °F 53.6 °F 95% 29.89 in 7.0 mi SSW 12.7 mph - N/A   Overcast
6:55 AM 55.0 °F 53.2 °F 94% 29.90 in 7.0 mi SW 12.7 mph - N/A   Overcast
7:15 AM 54.9 °F 53.2 °F 94% 29.90 in 5.0 mi SW 10.4 mph - N/A   Overcast
7:35 AM 54.5 °F 53.1 °F 95% 29.91 in 5.0 mi SW 10.4 mph - N/A   Overcast
7:55 AM 54.3 °F 52.9 °F 95% 29.91 in 4.0 mi SW 11.5 mph - N/A   Overcast
8:15 AM 54.5 °F 52.9 °F 94% 29.92 in 4.0 mi SW 13.8 mph - N/A   Overcast
8:35 AM 54.9 °F 52.9 °F 93% 29.93 in 5.0 mi SSW 12.7 mph - N/A   Overcast
8:55 AM 55.4 °F 52.7 °F 91% 29.93 in 7.0 mi SSW 10.4 mph - N/A   Overcast
9:15 AM 55.6 °F 52.7 °F 90% 29.93 in 7.0 mi SSW 10.4 mph - N/A   Overcast
9:35 AM 55.9 °F 52.3 °F 88% 29.94 in 7.0 mi SW 10.4 mph - N/A   Overcast
9:55 AM 58.3 °F 52.3 °F 81% 29.93 in 7.0 mi SW 10.4 mph - N/A   Mostly Cloudy
10:15 AM 60.8 °F 52.5 °F 74% 29.93 in 10.0 mi SSW 10.4 mph - N/A   Clear
10:35 AM 63.0 °F 51.8 °F 67% 29.93 in 10.0 mi SW 11.5 mph - N/A   Clear
10:55 AM 63.7 °F 51.8 °F 65% 29.93 in 10.0 mi SW 9.2 mph - N/A   Clear
11:15 AM 65.7 °F 50.4 °F 58% 29.92 in 10.0 mi SW 11.5 mph - N/A   Clear
11:35 AM 68.4 °F 49.5 °F 51% 29.91 in 10.0 mi SW 11.5 mph 17.3 mph N/A   Clear
11:55 AM 69.8 °F 48.7 °F 47% 29.91 in 10.0 mi SW 12.7 mph - N/A   Clear
12:15 PM 71.1 °F 47.8 °F 44% 29.90 in 10.0 mi SW 11.5 mph - N/A   Clear
12:35 PM 72.7 °F 46.0 °F 39% 29.89 in 10.0 mi WSW 11.5 mph - N/A   Clear
12:55 PM 73.6 °F 44.1 °F 35% 29.88 in 10.0 mi WSW 10.4 mph - N/A   Clear
1:15 PM 73.8 °F 43.0 °F 33% 29.87 in 10.0 mi WSW 13.8 mph 18.4 mph N/A   Clear
1:35 PM 74.3 °F 42.4 °F 32% 29.85 in 10.0 mi West 13.8 mph 19.6 mph N/A   Clear
1:55 PM 74.7 °F 41.0 °F 30% 29.85 in 10.0 mi West 15.0 mph 20.7 mph N/A   Clear
2:15 PM 75.4 °F 41.5 °F 30% 29.84 in 10.0 mi West 12.7 mph 18.4 mph N/A   Clear
2:35 PM 75.2 °F 39.0 °F 27% 29.84 in 10.0 mi WSW 13.8 mph 17.3 mph N/A   Clear
2:55 PM 75.2 °F 40.8 °F 29% 29.84 in 10.0 mi WSW 11.5 mph - N/A   Clear
3:15 PM 74.7 °F 37.4 °F 26% 29.84 in 10.0 mi West 13.8 mph 17.3 mph N/A   Clear
3:35 PM 74.1 °F 36.9 °F 26% 29.83 in 10.0 mi West 12.7 mph 17.3 mph N/A   Clear
3:55 PM 73.6 °F 35.6 °F 25% 29.80 in 10.0 mi WSW 6.9 mph - N/A   Clear
4:15 PM 72.5 °F 35.8 °F 26% 29.82 in 10.0 mi WSW 9.2 mph - N/A   Clear
4:35 PM 72.0 °F 36.1 °F 27% 29.83 in 10.0 mi West 8.1 mph - N/A   Clear
4:55 PM 71.1 °F 36.7 °F 28% 29.83 in 10.0 mi West 5.8 mph - N/A   Clear
5:15 PM 70.0 °F 37.2 °F 30% 29.84 in 10.0 mi WNW 5.8 mph - N/A   Clear
5:35 PM 68.4 °F 37.4 °F 32% 29.85 in 10.0 mi WNW 4.6 mph - N/A   Clear
5:55 PM 66.6 °F 37.2 °F 34% 29.85 in 10.0 mi WNW 4.6 mph - N/A   Clear
6:15 PM 63.9 °F 37.4 °F 38% 29.85 in 10.0 mi Calm Calm - N/A   Clear
6:35 PM 63.7 °F 37.6 °F 38% 29.85 in 5.0 mi Calm Calm - N/A   Haze
6:55 PM 61.0 °F 38.3 °F 43% 29.86 in 10.0 mi Calm Calm - N/A   Clear
7:15 PM 59.7 °F 37.8 °F 44% 29.87 in 10.0 mi SSE 4.6 mph - N/A   Clear
7:35 PM 58.8 °F 38.7 °F 47% 29.87 in 10.0 mi Calm Calm - N/A   Clear
7:55 PM 57.9 °F 38.7 °F 49% 29.87 in 10.0 mi Calm Calm - N/A   Clear
8:15 PM 55.9 °F 38.5 °F 52% 29.88 in 10.0 mi Calm Calm - N/A   Clear
8:35 PM 55.8 °F 37.4 °F 50% 29.89 in 10.0 mi SSE 5.8 mph - N/A   Clear
8:55 PM 55.4 °F 37.0 °F 50% 29.90 in 10.0 mi South 5.8 mph - N/A   Clear
9:15 PM 55.4 °F 38.7 °F 53% 29.90 in 10.0 mi South 6.9 mph - N/A   Clear
9:35 PM 55.6 °F 47.7 °F 75% 29.90 in 10.0 mi South 4.6 mph - N/A   Clear
9:55 PM 56.3 °F 52.2 °F 86% 29.91 in 10.0 mi South 5.8 mph - N/A   Clear
10:15 PM 55.9 °F 53.2 °F 91% 29.90 in 10.0 mi South 6.9 mph - N/A   Clear
10:35 PM 55.4 °F 53.4 °F 93% 29.91 in 10.0 mi South 6.9 mph - N/A   Scattered Clouds
10:55 PM 56.5 °F 55.2 °F 96% 29.91 in 5.0 mi South 9.2 mph - N/A   Mostly Cloudy
11:15 PM 57.2 °F 55.9 °F 96% 29.91 in 5.0 mi South 13.8 mph 18.4 mph N/A   Overcast
11:35 PM 57.2 °F 55.9 °F 96% 29.91 in 4.0 mi South 10.4 mph - N/A   Overcast
11:55 PM 57.4 °F 56.3 °F 96% 29.91 in 5.0 mi South 10.4 mph - N/A   Overcast